SNIPE 4

operational
NORAD ID: 56744 Int'l Des: 2023-072 Owner: KASI Country: KR
LEOCIRCULARRETROGRADESSO

About SNIPE 4

Description loading...

Live Position

Loading 3D Globe...

Upcoming Passes

Altitude History

Altitude vs Time

uPlot chart will show altitude changes over time

Two-Line Element Set

1 56744U 23072B 26062.18600436 .00025942 00000-0 69713-3 0 9995
2 56744 97.5353 265.0982 0005871 355.5480 4.5711 15.37878514153795
Epoch: Mar 3, 2026 • Age: 25 hours

Current Status

Altitude 465.5 km
Velocity 7.64 km/s
Sub-Earth Point 78.86°N, 45.46°E
Launch Date May 25, 2023
Age 2.7 years
Type other

Technical Details

Classification Payload
Mass 10.00 kg
Dry Mass 10.00 kg
Total Mass 10.00 kg
Length 0.30 m
Diameter 0.10 m
Span 0.70 m
Shape Box+ 2 pan
Manufacturer KASI
Bus Type Cubesat 6U
Phase Status In Orbit
Owner/State KASI/KR

Large Constellations

Loading constellations...